TimeEST,TemperatureF,Dew PointF,Humidity,Sea Level PressureIn,VisibilityMPH,Wind Direction,Wind SpeedMPH,Gust SpeedMPH,PrecipitationIn,Events,Conditions,WindDirDegrees,DateUTC
12:15 AM,46.4,37.4,71,30.07,10.0,Calm,Calm,-,N/A,,Overcast,0,2013-11-03 04:15:00
12:35 AM,46.4,39.2,76,30.07,10.0,Calm,Calm,-,N/A,,Overcast,0,2013-11-03 04:35:00
12:55 AM,46.4,39.2,76,30.07,10.0,Calm,Calm,-,N/A,,Overcast,0,2013-11-03 04:55:00
1:15 AM,46.4,39.2,76,30.08,10.0,Calm,Calm,-,N/A,,Overcast,0,2013-11-03 05:15:00
1:35 AM,44.6,39.2,81,30.08,10.0,WNW,3.5,-,N/A,,Overcast,300,2013-11-03 05:35:00
1:55 AM,44.6,39.2,81,30.09,10.0,Calm,Calm,-,N/A,,Scattered Clouds,0,2013-11-03 05:55:00
1:15 AM,42.8,39.2,87,30.09,10.0,Calm,Calm,-,N/A,,Mostly Cloudy,0,2013-11-03 06:15:00
1:35 AM,42.8,39.2,87,30.10,10.0,Calm,Calm,-,N/A,,Mostly Cloudy,0,2013-11-03 06:35:00
1:55 AM,42.8,39.2,87,30.10,10.0,Calm,Calm,-,N/A,,Overcast,0,2013-11-03 06:55:00
2:15 AM,42.8,39.2,87,30.11,10.0,Calm,Calm,-,N/A,,Overcast,0,2013-11-03 07:15:00
2:35 AM,42.8,41.0,93,30.12,10.0,Calm,Calm,-,N/A,,Overcast,0,2013-11-03 07:35:00
2:55 AM,42.8,39.2,87,30.12,10.0,Calm,Calm,-,N/A,,Overcast,0,2013-11-03 07:55:00
3:15 AM,41.0,37.4,87,30.12,10.0,Calm,Calm,-,N/A,,Scattered Clouds,0,2013-11-03 08:15:00
3:35 AM,39.2,37.4,93,30.13,10.0,Calm,Calm,-,N/A,,Scattered Clouds,0,2013-11-03 08:35:00
3:55 AM,39.2,37.4,93,30.14,10.0,Calm,Calm,-,N/A,,Scattered Clouds,0,2013-11-03 08:55:00
4:15 AM,39.2,37.4,93,30.14,10.0,Calm,Calm,-,N/A,,Mostly Cloudy,0,2013-11-03 09:15:00
4:35 AM,37.4,35.6,93,30.16,10.0,Calm,Calm,-,N/A,,Scattered Clouds,0,2013-11-03 09:35:00
4:55 AM,37.4,35.6,93,30.17,10.0,Calm,Calm,-,N/A,,Scattered Clouds,0,2013-11-03 09:55:00
5:15 AM,37.4,35.6,93,30.19,10.0,Calm,Calm,-,N/A,,Scattered Clouds,0,2013-11-03 10:15:00
5:35 AM,37.4,37.4,100,30.20,10.0,Calm,Calm,-,N/A,,Mostly Cloudy,0,2013-11-03 10:35:00
5:55 AM,37.4,37.4,100,30.20,10.0,Calm,Calm,-,N/A,,Mostly Cloudy,0,2013-11-03 10:55:00
6:15 AM,37.4,35.6,93,30.21,10.0,Calm,Calm,-,N/A,,Overcast,0,2013-11-03 11:15:00
6:35 AM,37.4,35.6,93,30.22,10.0,Calm,Calm,-,N/A,,Overcast,0,2013-11-03 11:35:00
6:55 AM,37.4,35.6,93,30.23,10.0,Calm,Calm,-,N/A,,Mostly Cloudy,0,2013-11-03 11:55:00
7:15 AM,37.4,35.6,93,30.24,10.0,Calm,Calm,-,N/A,,Mostly Cloudy,0,2013-11-03 12:15:00
7:35 AM,37.4,37.4,100,30.25,10.0,Calm,Calm,-,N/A,,Mostly Cloudy,0,2013-11-03 12:35:00
7:55 AM,41.0,39.2,93,30.27,10.0,Calm,Calm,-,N/A,,Overcast,0,2013-11-03 12:55:00
8:15 AM,44.6,42.8,93,30.28,10.0,Calm,Calm,-,N/A,,Overcast,0,2013-11-03 13:15:00
8:35 AM,46.4,42.8,87,30.29,10.0,Calm,Calm,-,N/A,,Overcast,0,2013-11-03 13:35:00
8:55 AM,48.2,41.0,76,30.29,10.0,NNE,4.6,-,N/A,,Overcast,30,2013-11-03 13:55:00
9:15 AM,48.2,41.0,76,30.30,10.0,North,3.5,-,N/A,,Overcast,10,2013-11-03 14:15:00
9:35 AM,48.2,41.0,76,30.30,10.0,NNE,4.6,-,N/A,,Overcast,20,2013-11-03 14:35:00
9:55 AM,50.0,41.0,71,30.31,10.0,NNE,3.5,-,N/A,,Overcast,30,2013-11-03 14:55:00
10:15 AM,50.0,41.0,71,30.32,10.0,Calm,Calm,-,N/A,,Overcast,0,2013-11-03 15:15:00
10:35 AM,51.8,41.0,67,30.32,10.0,Calm,Calm,-,N/A,,Overcast,0,2013-11-03 15:35:00
10:55 AM,50.0,39.2,66,30.33,10.0,Calm,Calm,-,N/A,,Overcast,0,2013-11-03 15:55:00
11:15 AM,51.8,37.4,58,30.33,10.0,Calm,Calm,-,N/A,,Overcast,0,2013-11-03 16:15:00
11:35 AM,51.8,37.4,58,30.34,10.0,Calm,Calm,-,N/A,,Overcast,0,2013-11-03 16:35:00
11:55 AM,51.8,37.4,58,30.33,10.0,ENE,5.8,-,N/A,,Overcast,70,2013-11-03 16:55:00
12:15 PM,53.6,37.4,54,30.33,10.0,Calm,Calm,-,N/A,,Overcast,0,2013-11-03 17:15:00
12:35 PM,53.6,37.4,54,30.33,10.0,Calm,Calm,-,N/A,,Overcast,0,2013-11-03 17:35:00
12:55 PM,53.6,37.4,54,30.33,10.0,Calm,Calm,-,N/A,,Overcast,0,2013-11-03 17:55:00
1:15 PM,53.6,35.6,51,30.32,10.0,Calm,Calm,-,N/A,,Mostly Cloudy,0,2013-11-03 18:15:00
1:35 PM,55.4,35.6,47,30.32,10.0,WSW,3.5,-,N/A,,Overcast,250,2013-11-03 18:35:00
1:55 PM,53.6,37.4,54,30.32,10.0,Calm,Calm,-,N/A,,Overcast,0,2013-11-03 18:55:00
2:15 PM,53.6,35.6,51,30.32,10.0,Calm,Calm,-,N/A,,Overcast,0,2013-11-03 19:15:00
2:35 PM,53.6,35.6,51,30.32,10.0,East,3.5,-,N/A,,Overcast,90,2013-11-03 19:35:00
2:55 PM,53.6,35.6,51,30.32,10.0,East,3.5,-,N/A,,Overcast,90,2013-11-03 19:55:00
3:15 PM,53.6,33.8,47,30.32,10.0,Calm,Calm,-,N/A,,Overcast,0,2013-11-03 20:15:00
3:35 PM,53.6,33.8,47,30.32,10.0,East,3.5,-,N/A,,Overcast,100,2013-11-03 20:35:00
3:55 PM,53.6,33.8,47,30.32,10.0,Calm,Calm,-,N/A,,Overcast,0,2013-11-03 20:55:00
4:15 PM,53.6,33.8,47,30.32,10.0,Calm,Calm,-,N/A,,Overcast,0,2013-11-03 21:15:00
4:35 PM,51.8,35.6,54,30.32,10.0,Calm,Calm,-,N/A,,Scattered Clouds,0,2013-11-03 21:35:00
4:55 PM,50.0,35.6,58,30.33,10.0,Calm,Calm,-,N/A,,Clear,0,2013-11-03 21:55:00
5:15 PM,46.4,35.6,66,30.33,10.0,Calm,Calm,-,N/A,,Clear,0,2013-11-03 22:15:00
5:35 PM,44.6,35.6,71,30.34,10.0,Calm,Calm,-,N/A,,Scattered Clouds,0,2013-11-03 22:35:00
5:55 PM,44.6,35.6,71,30.34,10.0,Calm,Calm,-,N/A,,Scattered Clouds,0,2013-11-03 22:55:00
6:15 PM,42.8,35.6,76,30.35,10.0,Calm,Calm,-,N/A,,Clear,0,2013-11-03 23:15:00
6:35 PM,42.8,35.6,76,30.35,10.0,Calm,Calm,-,N/A,,Clear,0,2013-11-03 23:35:00
6:55 PM,41.0,35.6,81,30.36,10.0,Calm,Calm,-,N/A,,Clear,0,2013-11-03 23:55:00
7:15 PM,41.0,35.6,81,30.36,10.0,Calm,Calm,-,N/A,,Clear,0,2013-11-04 00:15:00
7:35 PM,39.2,35.6,87,30.37,10.0,Calm,Calm,-,N/A,,Clear,0,2013-11-04 00:35:00
7:55 PM,37.4,33.8,87,30.38,10.0,Calm,Calm,-,N/A,,Clear,0,2013-11-04 00:55:00
8:15 PM,37.4,33.8,87,30.39,10.0,Calm,Calm,-,N/A,,Clear,0,2013-11-04 01:15:00
8:35 PM,37.4,33.8,87,30.39,10.0,Calm,Calm,-,N/A,,Clear,0,2013-11-04 01:35:00
8:55 PM,35.6,33.8,93,30.39,10.0,Calm,Calm,-,N/A,,Clear,0,2013-11-04 01:55:00
9:15 PM,35.6,33.8,93,30.39,10.0,Calm,Calm,-,N/A,,Clear,0,2013-11-04 02:15:00
9:35 PM,35.6,33.8,93,30.39,10.0,Calm,Calm,-,N/A,,Clear,0,2013-11-04 02:35:00
9:55 PM,35.6,33.8,93,30.39,10.0,Calm,Calm,-,N/A,,Clear,0,2013-11-04 02:55:00
10:15 PM,35.6,33.8,93,30.40,10.0,Calm,Calm,-,N/A,,Clear,0,2013-11-04 03:15:00
10:35 PM,33.8,32.0,93,30.39,10.0,Calm,Calm,-,N/A,,Clear,0,2013-11-04 03:35:00
10:55 PM,33.8,32.0,93,30.39,10.0,Calm,Calm,-,N/A,,Clear,0,2013-11-04 03:55:00